Regional Weather Roundup
Issued by NWS Mobile, AL

Home | Current Version | Previous Version | Text Only | Print | Product List | Glossary On
Versions: 1 2 3 4 5 6 7 8 9 10 11 12 13 14 15 16 17 18 19 20 21 22 23 24 25 26 27
000
ASUS44 KMOB 051212
RWRMOB
REGIONAL WEATHER ROUNDUP
NATIONAL WEATHER SERVICE MOBILE AL
700 AM CDT THU MAY 05 2016

NOTE: "FAIR" INDICATES FEW OR NO CLOUDS BELOW 12,000 FEET WITH NO
      SIGNIFICANT WEATHER AND/OR OBSTRUCTIONS TO VISIBILITY.

  * THESE STATIONS ARE PART OF THE UNIVERSITY OF SOUTH ALABAMA
    MESONET AND ARE NOT UNDER NWS OR FAA QUALITY CONTROL.

ALZ061>064-051300-
COASTAL ALABAMA

CITY           SKY/WX    TMP DP  RH WIND       PRES   REMARKS
MOBILE REG APT SUNNY     59  54  83 NW5       29.89R
6HR MIN TEMP:  56; 6HR MAX TEMP:  61;

BROOKLEY FIELD SUNNY     61  54  77 NW9       29.89R
6HR MIN TEMP:  59; 6HR MAX TEMP:  65;

USA CAMPUS*    NOT AVBL
DOG RIVER*     NOT AVBL


CITY           SKY/WX    TMP DP  RH WIND       PRES   REMARKS
MOUNT VERNON*  NOT AVBL
SARALAND*      NOT AVBL
BAY MINETTE*   NOT AVBL
LOXLEY*        NOT AVBL
ROBERTSDALE*   NOT AVBL
FAIRHOPE*      NOT AVBL
ELBERTA*       NOT AVBL
FOLEY*         NOT AVBL
GRAND BAY*     NOT AVBL
DAUPHIN ISLND* NOT AVBL
BON SCOUR NWR* NOT AVBL
GULF SHORES    SUNNY     62  54  77 NW5       29.87R

$$

ALZ051>060-051300-
INTERIOR SOUTHWEST AND SOUTH CENTRAL ALABAMA

CITY           SKY/WX    TMP DP  RH WIND       PRES   REMARKS
GREENVILLE     SUNNY     57  50  77 N6        29.86R
6HR MIN TEMP:  55; 6HR MAX TEMP:  62;

EVERGREEN      SUNNY     55  53  93 N6        29.88R
6HR MIN TEMP:  53; 6HR MAX TEMP:  62;

CASTLEBERRY*   NOT AVBL
ATMORE*        NOT AVBL
DIXIE*         NOT AVBL
ANDALUSIA/OPP  SUNNY     60  53  77 N6        29.86R
6HR MIN TEMP:  57; 6HR MAX TEMP:  66; 6HR PCP: TRACE;

ANDALUSIA*     NOT AVBL
FLORALA APT    NOT AVBL
FLORALA*       NOT AVBL

$$

FLZ001>006-051300-
WESTERN FLORIDA PANHANDLE

CITY           SKY/WX    TMP DP  RH WIND       PRES   REMARKS
PENSACOLA      SUNNY     62  52  69 NW9       29.85R
6HR MIN TEMP:  59; 6HR MAX TEMP:  67;

NAS PENSACOLA  MOSUNNY   62  53  72 NW5       29.86R
6HR MIN TEMP:  60; 6HR MAX TEMP:  69;

MILTON         SUNNY     59  53  80 NW5       29.86R
6HR MIN TEMP:  53; 6HR MAX TEMP:  64;

WHTNG S FIELD  SUNNY     60  54  80 NW7       29.86R
6HR MIN TEMP:  56; 6HR MAX TEMP:  65;



CITY           SKY/WX    TMP DP  RH WIND       PRES   REMARKS
WALNUT HILL*   NOT AVBL
JAY*           NOT AVBL
DUKE FIELD     SUNNY     58  51  77 NW5       29.84R
CRESTVIEW      SUNNY     59  53  80 N7        29.86R
6HR MIN TEMP:  51; 6HR MAX TEMP:  64;

VALPARAISO     MOSUNNY   61  51  71 N6        29.85R
6HR MIN TEMP:  56; 6HR MAX TEMP:  64;

DESTIN         SUNNY     67  56  67 N8        29.84R
6HR MIN TEMP:  66; 6HR MAX TEMP:  73;


$$

MSZ076-079-051300-
INTERIOR SOUTHEAST MISSISSIPPI

CITY           SKY/WX    TMP DP  RH WIND       PRES   REMARKS
LEAKESVILLE*   NOT AVBL
AGRICOLA*      NOT AVBL

$$

MARINE OBSERVATIONS

STATION/POSITION TIME  TEMP    WIND        PRES    WAVE
                       AIR SEA DIR/SP/G            HT/PER
                 (UTC) (F)     (DEG/KT/KT) (MB)    (FT/S)
PASCAGOULA       1100   62     340/  8/ 10 1010.7R
PETIT BOIS ISLND 1106   67     330/ 15/ 18 1011.5R
GRAND BAY        1000   64     320/  9     1011.0S
KATRINA CUT      1100   67     340/ 17       N/A
CEDAR POINT      1100   63     340/ 10     1010.2R
E DAUPHIN ISLAND 1100   66     320/ 15/ 16 1010.5R
MIDDLE BAY LIGHT 1100   66     330/ 14     1010.8R
USCG MOBILE BAY  1100   61 74  310/  5/  7 1011.3R
STATE DOCKS      1100   61                 1010.7R
MEAHER PARK      1100   60      20/  2     1010.8R
WEEKS BAY        1000   65                   N/A
FORT MORGAN      1100   67     350/ 17/ 19 1009.9R
12 S ORANGE BCH  1150   69 74  330/ 14/ 16 1010.2R   3/ 5
PENSACOLA BAY    1100          330/  5/  8 1010.2R
64 S DAUPHIN ISL 1100   74 75  280/ 17/ 21 1010.9R

$$

SELECTED LOCATIONS ACROSS THE REGION

CITY           SKY/WX    TMP DP  RH WIND       PRES   REMARKS
NEW ORLEANS    PTCLDY    65  57  75 NW7       29.91R
GULFPORT       PTCLDY    59  53  80 W5        29.88R
PASCAGOULA AP  MOSUNNY   57  54  89 CALM      29.88R
PASCAGOULA*    NOT AVBL
HATTIESBURG    CLEAR     57  53  86 N6        29.92R
LAUREL         CLEAR     57  50  77 N9        29.92R
MERIDIAN       SUNNY     54  50  86 N3        29.92R
JACKSON        CLEAR     58  47  66 NE6       29.94R
MONTGOMERY     SUNNY     57  50  77 W6        29.87R
TROY           SUNNY     57  53  86 NW7       29.86R
KINSTON*       NOT AVBL
GENEVA*        NOT AVBL
ASHFORD*       NOT AVBL
DOTHAN         SUNNY     57  53  86 NW9       29.86R
PANAMA CITY    SUNNY     59  53  80 NW5       29.83R

$$





USA.gov is the U.S. government's official web portal to all federal, state and local government web resources and services.